Theta_e
319 320 320 320 320 320 320 319 320 320 321 322 323 324 326 327 325 314 303 315 319 334 332 310 307 306 308 306 312 308 297 294 296 299 299 306 302 304 303 301 302 303 304 305 311
319 319 319 319 319 319 318 319 319 320 321 322 323 323 326 326 314 309 319 333 334 332 307 305 303 304 300 301 308 303 296 297 302 303 301 305 304 303 300 299 300 303 306 309 310
319 319 319 319 318 318 318 318 319 320 322 323 324 324 326 323 307 303 337 337 334 325 309 307 304 303 298 299 300 302 298 303 306 305 306 305 304 306 300 297 301 302 306 309 309
318 318 318 318 318 317 317 318 319 321 323 324 324 324 326 314 293 305 337 336 332 314 307 303 301 297 295 295 298 293 301 303 302 303 305 303 306 304 303 304 307 305 309 309 308
318 318 318 317 317 316 317 318 320 321 322 323 323 324 314 300 301 309 336 327 309 308 304 301 296 295 292 293 295 293 295 299 300 300 299 303 303 302 303 307 306 309 309 309 309
317 317 317 317 316 316 317 318 320 321 321 322 323 324 306 289 306 307 310 307 308 306 303 302 298 298 293 294 292 294 296 296 297 298 297 297 297 299 302 303 303 307 307 308 308
316 316 316 315 315 315 317 319 320 321 321 322 323 321 304 298 305 305 309 305 306 306 303 303 302 296 296 292 297 296 292 293 294 295 295 297 294 295 298 298 301 304 304 306 308
315 315 314 314 314 316 318 320 321 322 322 323 325 312 295 310 305 305 305 305 306 306 306 305 304 300 296 297 295 290 289 287 293 296 296 295 289 296 297 295 296 294 300 303 306
314 314 313 314 315 317 318 320 323 324 325 325 310 305 295 313 302 305 303 303 304 304 304 308 303 296 296 290 287 288 284 285 290 295 294 292 290 295 296 293 294 293 293 297 305
313 313 313 314 315 317 319 320 323 320 319 321 316 296 301 300 306 306 303 304 301 301 300 299 294 290 289 288 282 285 284 284 284 291 292 290 290 293 295 294 292 291 291 292 298
312 313 313 314 315 316 314 307 305 303 304 301 302 300 302 307 306 301 303 301 300 297 289 293 290 285 287 289 289 287 285 284 287 292 289 286 288 292 294 294 293 293 293 292 292
312 312 313 314 315 316 308 304 303 304 295 307 307 304 305 304 299 300 302 296 295 290 291 289 286 291 293 291 290 288 285 284 288 291 288 287 288 291 293 293 292 292 292 293 295
312 312 313 315 316 306 302 301 306 310 296 302 304 302 302 302 298 297 299 296 292 289 288 286 290 295 293 290 288 286 284 284 285 289 289 287 287 288 292 293 295 295 294 296 296
312 313 313 315 304 301 300 304 304 310 289 295 299 301 302 303 297 302 301 297 293 289 290 288 293 292 290 289 289 284 290 291 289 284 280 286 280 284 288 291 292 291 293 296 297
313 313 313 312 300 298 302 303 305 302 281 295 297 304 300 298 297 298 301 297 291 290 290 288 289 289 289 290 291 289 292 289 289 284 283 283 282 283 287 289 290 291 293 296 298
313 313 313 305 300 302 303 306 304 287 281 292 297 296 295 296 295 298 297 298 296 292 291 291 294 292 291 293 292 293 289 289 286 284 279 282 282 282 285 288 289 292 294 296 296
312 312 310 307 297 302 306 302 287 282 293 291 293 296 294 292 293 293 292 290 288 285 284 289 289 292 293 288 291 290 284 280 280 280 280 283 282 282 288 291 292 292 293 295 296
311 309 307 308 304 302 302 289 282 291 290 297 295 295 290 292 291 292 290 288 293 288 284 283 283 288 291 288 286 286 285 281 277 277 279 284 280 285 291 294 295 295 294 295 295
308 299 297 298 299 304 293 284 284 289 293 292 293 287 288 292 290 290 289 290 292 293 284 283 284 290 291 290 289 285 283 285 282 279 278 281 284 290 292 292 293 293 293 293 293
297 295 295 299 299 298 291 288 289 294 294 294 287 290 286 289 289 288 288 292 292 295 293 286 282 287 291 290 290 288 289 283 282 277 276 278 279 282 287 290 291 290 290 291 292
293 290 295 298 299 294 286 287 292 296 296 292 290 289 289 288 288 288 288 292 294 294 293 289 284 285 287 285 284 287 283 284 283 282 279 277 279 288 287 290 289 289 290 290 291
289 285 296 297 290 287 287 291 296 293 292 293 292 291 288 288 286 289 288 291 295 293 288 290 286 282 285 287 288 286 284 284 281 280 279 279 279 288 287 288 289 289 290 290 291
288 287 294 294 285 284 289 291 289 289 288 290 288 289 289 287 284 289 290 293 293 292 288 290 284 280 281 285 289 286 288 288 285 283 279 278 279 289 287 287 288 288 288 289 290
286 282 287 287 284 283 283 284 286 290 288 288 286 287 284 284 286 284 284 290 291 291 296 293 285 283 277 281 284 283 285 286 285 280 280 281 281 285 285 285 286 287 288 289 289
286 283 284 279 282 283 284 284 283 283 287 287 284 284 283 280 282 281 283 284 289 290 287 284 280 281 283 283 283 284 283 283 282 284 281 282 281 282 283 283 285 285 287 288 289
285 285 284 281 283 282 283 281 283 284 284 283 282 284 283 280 281 279 282 281 282 284 283 283 278 279 278 282 281 280 281 283 280 280 281 280 278 283 283 283 284 284 286 286 288
289 289 285 283 280 279 279 281 283 284 285 286 284 282 281 283 285 285 285 285 284 281 280 280 278 276 273 278 278 277 279 279 279 280 280 276 279 282 282 284 283 284 286 286 286
Wind_Speed
17 17 17 18 19 19 20 20 20 20 20 20 19 17 17 17 14 2 4 6 3 5 5 6 4 6 3 3 3 3 5 0 2 5 7 5 1 1 2 6 0 2 3 2 16
18 18 18 19 19 20 20 21 21 20 19 19 18 17 17 15 3 3 8 3 3 6 3 3 5 6 4 3 2 5 3 5 4 2 4 4 3 3 2 1 2 1 3 7 15
18 19 19 20 20 20 21 21 21 20 18 17 16 16 15 8 2 2 1 3 3 5 1 0 1 1 3 3 2 2 4 3 3 4 3 6 5 1 4 3 6 6 6 10 13
19 20 20 20 21 22 22 22 20 19 17 16 15 14 14 2 3 3 2 1 5 5 3 3 5 4 3 3 3 2 5 3 3 2 3 4 6 5 4 6 3 6 12 13 15
20 21 21 22 22 23 23 22 20 19 17 15 14 12 4 1 4 3 2 2 4 3 3 2 4 2 2 3 5 2 3 5 5 7 5 4 6 4 6 9 4 8 9 15 14
20 21 22 23 24 24 23 21 20 18 16 13 10 7 1 1 3 1 1 1 2 2 4 4 2 1 1 2 1 2 4 8 7 5 3 3 4 1 9 5 3 8 11 12 14
22 23 23 24 25 25 24 22 20 18 14 10 5 3 0 4 3 1 1 1 1 2 2 1 3 3 2 4 2 4 6 7 2 3 4 6 5 6 4 3 6 9 9 9 13
22 23 24 26 26 25 24 23 19 12 5 4 5 1 3 3 3 2 1 3 2 1 2 3 3 3 1 3 7 4 5 6 5 4 5 3 8 8 9 7 9 5 8 8 11
23 24 26 26 27 26 24 22 9 4 7 8 3 1 1 7 2 3 1 1 3 2 3 2 4 3 5 4 5 7 0 2 10 5 1 3 6 6 9 8 8 10 8 9 12
24 25 26 26 26 25 24 11 4 3 2 3 2 3 6 2 4 4 2 1 3 3 5 6 6 3 4 5 2 3 2 3 4 5 5 3 6 8 9 8 7 9 9 8 8
25 24 24 24 25 25 12 4 6 5 9 2 3 2 3 7 2 2 2 3 3 8 2 4 6 2 5 5 4 2 2 3 5 2 3 3 3 7 9 9 14 13 14 12 6
25 25 24 22 21 23 2 6 2 3 2 1 4 4 4 2 3 3 1 3 3 0 2 6 3 5 3 2 3 3 2 5 4 3 4 3 3 5 7 6 6 8 10 11 10
26 25 23 21 18 5 7 4 4 1 2 5 2 2 2 2 1 3 1 2 1 1 1 4 5 2 3 1 2 3 4 3 3 5 4 2 5 6 4 7 11 12 7 11 10
25 23 21 22 6 3 3 7 3 3 6 7 4 2 3 1 3 1 3 2 3 1 0 4 4 1 0 3 4 3 2 1 0 4 4 2 4 3 4 8 10 11 13 13 15
24 21 17 10 1 4 4 6 4 3 4 2 3 1 2 2 3 3 3 4 2 3 5 6 2 1 1 3 3 5 1 2 2 3 3 2 4 6 3 7 8 10 11 12 12
24 20 12 2 2 2 5 5 3 6 2 3 4 6 6 3 2 2 4 7 1 1 1 7 4 2 4 0 1 2 3 6 4 3 1 4 4 4 1 5 3 6 11 12 12
24 19 3 1 2 3 3 3 5 6 4 6 4 5 4 4 4 3 5 8 5 5 6 7 3 3 0 2 3 5 6 4 3 3 5 1 4 2 5 7 5 6 8 9 9
21 9 2 2 4 3 3 5 6 0 2 4 3 5 2 6 5 7 4 5 6 5 2 3 6 2 2 1 2 1 5 5 3 2 3 1 3 3 4 7 6 6 5 8 11
12 3 3 4 5 2 5 8 2 2 3 6 6 4 4 5 4 6 4 2 2 5 1 4 5 5 1 2 2 1 1 3 4 2 2 2 3 4 6 7 7 9 11 11 10
2 3 4 9 3 4 7 4 2 4 4 3 4 5 5 7 5 5 3 4 6 4 2 1 5 2 5 1 3 2 3 1 3 3 3 1 2 3 2 4 6 8 9 8 8
4 4 5 11 3 7 6 2 4 3 5 5 3 4 4 4 3 3 3 2 5 7 3 4 2 8 3 1 1 4 2 3 2 4 5 4 3 5 3 4 5 6 6 7 8
3 3 5 6 7 2 3 3 4 6 8 6 4 4 3 4 4 3 3 4 8 3 3 2 2 4 8 2 2 1 3 3 4 3 1 3 2 4 6 6 6 6 6 6 6
4 2 5 4 5 2 3 5 6 7 6 6 6 5 5 5 2 5 4 3 9 7 4 4 2 5 8 6 7 7 5 5 2 2 4 5 4 4 6 8 6 6 6 6 7
4 4 6 7 1 5 4 4 4 5 5 5 5 6 5 6 5 3 6 5 7 6 10 1 1 3 4 2 2 7 12 4 3 2 4 2 6 4 6 7 7 7 7 7 8
5 1 2 3 6 6 4 3 3 5 5 9 5 6 3 4 5 4 5 7 5 11 5 5 2 3 4 6 4 7 5 6 2 6 3 4 5 4 3 4 4 4 7 7 7
4 3 4 2 3 6 7 5 4 3 5 4 5 4 4 3 2 4 5 2 3 6 5 7 3 4 4 4 5 5 7 3 6 4 8 11 5 2 2 3 2 6 7 7 7
2 2 5 6 3 4 1 1 3 1 2 4 1 2 3 1 5 8 9 7 7 3 3 3 1 3 5 5 8 1 4 8 5 7 3 3 1 2 5 6 4 3 5 5 7
Wind_Direction
354 351 348 345 342 338 335 331 329 327 325 323 324 326 327 330 321 121 251 223 184 317 344 311 30 360 38 25 37 112 62 297 272 0 290 327 37 55 88 116 28 343 148 328 129
350 347 344 341 338 333 330 327 325 323 320 319 320 324 327 335 326 287 254 262 267 341 1 33 354 356 17 2 26 85 102 224 227 268 269 306 45 338 93 142 229 232 21 114 132
346 343 341 337 334 331 328 325 322 319 318 318 320 321 324 332 320 293 206 255 317 355 323 262 334 60 44 16 15 138 188 214 270 261 290 307 338 31 116 274 235 210 155 149 150
342 340 337 334 331 329 327 323 319 317 317 318 318 319 322 271 131 305 151 358 341 330 331 18 22 37 40 359 342 348 257 221 271 33 338 288 320 322 178 239 295 209 159 156 171
338 337 335 332 329 328 325 321 317 314 313 313 314 320 323 47 256 282 119 2 335 328 36 50 51 57 359 324 344 174 305 314 291 295 235 297 258 265 265 253 272 129 158 178 185
336 335 332 330 327 326 322 318 313 308 304 303 306 315 251 134 298 174 142 11 306 47 27 53 114 178 195 271 150 293 275 281 290 265 274 231 246 204 261 62 92 161 188 195 194
335 333 331 329 326 325 321 317 311 303 292 285 275 247 183 197 357 353 263 275 301 109 99 126 137 67 138 313 304 302 317 332 341 320 224 158 327 232 284 299 201 207 219 209 218
337 335 333 329 326 325 322 321 313 297 275 239 187 196 234 273 330 316 289 318 360 17 116 151 121 103 139 308 9 25 41 11 310 4 350 91 280 284 7 18 317 245 247 238 229
339 337 333 330 326 325 325 325 332 98 103 133 129 128 119 322 49 319 6 218 327 349 35 88 63 83 24 62 15 6 5 331 324 12 338 89 281 330 335 353 316 312 264 242 237
339 337 333 331 327 325 326 317 299 111 151 212 260 53 352 317 309 335 296 228 70 47 17 43 46 60 33 64 211 286 344 304 259 308 4 4 324 318 338 23 6 341 341 271 233
337 335 333 331 328 325 342 16 19 357 41 77 284 292 306 294 283 334 302 84 53 54 40 6 55 227 234 198 189 196 201 250 261 274 8 358 53 325 323 24 14 2 358 356 310
337 336 333 331 329 322 57 67 115 243 344 290 258 280 252 275 350 339 65 76 71 318 6 16 250 233 242 205 205 235 270 272 287 313 96 77 27 306 3 18 4 351 353 350 351
338 336 334 331 322 20 72 61 320 94 79 318 279 312 310 25 338 292 70 106 148 292 190 168 245 11 176 239 268 247 199 228 229 343 47 72 345 353 353 25 30 21 7 19 9
339 338 338 331 63 318 51 324 337 150 80 322 349 351 8 42 356 303 5 104 34 271 177 224 273 48 127 271 138 300 207 120 80 61 214 67 266 318 7 20 21 4 14 13 12
339 339 343 25 207 56 289 329 316 55 68 342 335 247 358 72 298 356 2 31 252 282 70 262 315 336 311 228 172 226 78 302 212 115 40 306 105 269 14 37 8 2 5 12 18
339 337 341 17 31 250 319 321 55 47 94 356 341 352 11 7 333 349 35 30 52 318 336 239 295 236 214 327 245 81 66 47 50 92 360 239 124 289 260 130 53 9 14 7 8
335 334 344 103 268 330 343 52 43 94 313 340 342 3 352 309 342 39 44 18 27 11 3 333 314 308 80 13 32 72 55 343 359 12 226 65 65 276 45 58 78 55 18 5 11
331 333 321 232 288 349 55 54 74 106 342 339 346 312 81 7 30 9 55 28 14 21 29 27 330 352 355 145 191 63 138 151 254 239 275 6 118 358 42 66 61 60 43 32 26
333 336 345 289 300 108 74 54 114 2 317 344 315 40 348 6 45 72 52 6 330 12 71 8 278 320 290 4 86 145 181 183 115 16 55 148 84 78 57 35 32 51 51 35 28
58 14 295 323 11 66 70 117 93 12 336 14 43 28 356 351 24 47 19 1 333 17 327 25 310 320 301 20 42 156 178 21 13 209 238 21 123 213 68 39 27 33 43 33 29
55 50 267 340 74 46 91 113 103 13 29 44 44 20 11 14 325 17 20 19 9 320 23 5 107 291 329 61 54 349 334 51 120 147 178 167 222 349 150 81 73 39 37 38 30
66 53 314 348 53 32 65 52 28 360 10 34 89 48 28 357 346 42 75 12 347 317 3 360 139 270 250 274 295 282 8 110 128 256 31 132 219 354 73 68 73 42 27 28 38
64 294 327 39 96 53 60 71 59 25 17 15 33 28 20 21 30 33 34 22 9 28 33 325 2 340 339 2 9 37 19 15 317 60 209 145 206 68 34 46 30 73 35 21 30
67 33 339 39 49 87 80 24 90 42 57 64 18 44 18 28 13 33 351 2 344 9 11 22 57 174 213 277 293 310 318 9 44 326 305 241 134 34 31 48 28 29 24 23 13
37 71 211 6 11 64 72 40 45 17 17 24 42 52 13 347 348 22 6 331 4 355 30 64 299 6 286 273 269 264 321 349 266 235 240 141 101 66 35 43 25 7 22 23 11
97 105 33 41 6 49 24 13 51 22 33 11 70 343 25 83 137 296 20 297 268 351 29 355 297 8 286 298 307 247 358 36 41 355 87 106 82 270 7 11 57 35 15 5 344
353 38 99 336 34 75 2 64 44 72 47 80 88 25 9 257 251 237 215 233 248 309 360 308 333 28 270 327 310 285 11 81 77 34 69 70 190 7 344 337 2 26 5 330 314